Regional Weather Roundup
Issued by NWS Charleston, SC

Current Version | Previous Version | Graphics & Text | Print | Product List | Glossary On
Versions: 1 2 3 4 5 6 7 8 9 10 11 12 13 14 15 16 17 18 19 20 21 22 23 24 25 26 27 28 29 30 31 32 33 34 35 36 37 38 39 40 41 42 43 44 45 46 47 48 49 50
768 ASUS42 KCHS 252012 RWRCHS Regional Weather Roundup National Weather Service Charleston SC 400 PM EDT FRI MAY 25 2018 NOTE: "fair" indicates few or no clouds below 12,000 feet with no significant weather and/or obstructions to visibility. Not all stations are quality controlled. Use data with caution, especially dewpoint observations. SCZ027-030-031-034>040-042>050-252100- ...Southeast South Carolina... CITY SKY/WX TMP DP RH WIND PRES REMARKS N Charleston PTSUNNY 83 70 64 SE14 30.03F Waterfront Prk N/A 79 72 79 SE9 29.88F Mount Pleasant FAIR 82 72 69 SE9 30.03F Johns Island FAIR 81 72 74 SE9G16 30.03F Pinopolis N/A 84 70 61 VRB3 29.96F Moncks Corner FAIR 82 66 57 SE8 30.02F HAZE Summerville FAIR 81 70 69 SE6 30.03F Beaufort MCAS FAIR 85 72 65 S9G16 30.02F HX 91 Beaufort Arpt MOCLDY 81 70 69 SE6G17 30.02F Hilton Head Is MOSUNNY 81 72 74 SE9 30.04F Walterboro FAIR 79 72 78 SE3 30.02F Allendale FAIR 73 72 94 CALM 30.01F ...Southern Midlands and Pee Dee... CITY SKY/WX TMP DP RH WIND PRES REMARKS Georgetown FAIR 82 68 61 S9 30.05F Kingstree HVY RAIN 75 73 94 E6 30.03F Orangeburg FAIR 78 71 79 VRB5 30.02F Barnwell RAIN 73 72 94 SE9G15 30.02R Aiken MOCLDY 79 70 73 S10 30.04F THUNDER Manning FAIR 72 70 94 CALM 30.03F Columbia PTSUNNY 77 72 84 SE14 30.01S Sumter CLOUDY 73 70 88 SE5 30.01F Florence LGT RAIN 77 71 82 SE6 30.04S Myrtle Beach FAIR 82 73 74 S14 30.05F N Myrtle Beach FAIR 80 71 74 S8 30.04F $$ GAZ063-065-086>088-099>101-113>116-118-119-134>141-150-252100- ...Southeast Georgia... CITY SKY/WX TMP DP RH WIND PRES REMARKS Savannah Arpt PTSUNNY 85 69 58 SE16 30.00F Hunter AAF FAIR 83 70 64 SE14 29.98F Fort Stewart FAIR 84 69 59 SE15G22 29.97F Statesboro FAIR 85 70 62 SE10 29.98F Sylvania LGT RAIN 82 73 76 SE7 30.00F Claxton FAIR 87 71 59 SE7 29.97F HX 93 ...CSRA, Central and far Southeast Georgia... CITY SKY/WX TMP DP RH WIND PRES REMARKS Thomson LGT RAIN 72 70 95 CALM 30.05F Augusta-Bush LGT RAIN 77 74 90 NW5 29.98F Augusta-Daniel LGT RAIN 76 74 93 CALM 30.01F Swainsboro MOCLDY 84 72 65 S8 29.98F Vidalia FAIR 88 64 45 S9 29.97F Eastman FAIR 89 58 36 S9 29.98F Hazlehurst N/A 86 68 53 S7 29.96F Alma FAIR 82 73 74 S7 29.98F Waycross CLOUDY 76 72 87 E9 29.99S THUNDER Jesup MOCLDY 86 65 48 S9 29.98F Baxley PTSUNNY 77 77 100 CALM 29.98F Brunswick PTSUNNY 82 70 65 SE16 30.00F Saint Simons FAIR 82 74 76 SE16 30.00F $$ SCZ027-028-034-036>038-045-046-048>050-GAZ119-141-252100- ...Lake and Supplemental Coastal Observations... STATION/POSITION TIME TEMP WIND PRES WAVE SWELL AIR SEA DIR/SP/G HT/PER HT/PER/DIR (UTC) (F) (DEG/KT/KT) (MB) (FT/S) (FT/S/D) Winyah Bay 1845 79 130/ 9 1018.0 Lake Murray 1920 76 300/ 7/ 10 1015.6F ACE Basin NERRS 1845 83 120/ 4 1017.0 Fort Pulaski 1942 81 80 150/ 6/ 9 1017.1F Sapelo Island 1900 84 140/ 10 1016.0 $$ ANZ835-935-AMZ111-154-330-350-352-354-370-450-454-472-252100- ...C-MAN and Buoy Observations... STATION/POSITION TIME TEMP WIND PRES WAVE SWELL AIR SEA DIR/SP/G HT/PER HT/PER/DIR (UTC) (F) (DEG/KT/KT) (MB) (FT/S) (FT/S/D) Buoy 41004 1950 77 150/ 10/ 12 1017.2F 3/ 8 2/110/ 8 Buoy 41008 1950 78 78 160/ 12/ 14 1015.9F 2/ 8 2/120/ 8 Folly Beach CMAN 1900 77 130/ 11/ 12 1018.3F Capers Nearshore 1908 78 78 140/ 10/ 12 1018.4F Fripp Nearshore 1908 78 80 130/ 8/ 12 1016.9F STATION/POSITION TIME TEMP WIND PRES WAVE SWELL AIR SEA DIR/SP/G HT/PER HT/PER/DIR (UTC) (F) (DEG/KT/KT) (MB) (FT/S) (FT/S/D) 5E St. Marys GA 2000 79 N/A 2/ 8 Frying Pan Buoy 1950 78 78 170/ 6/ 8 1017.5F 2/ 8 2/120/ 8 Buoy 41025 1950 77 78 170/ 14/ 16 1018.4F 2/ 8 2/140/ 8 Cape Lookout NC 1900 160/ 8/ 9 1018.7F Buoy 41002 1950 79 160/ 4/ 6 1018.0F 3/ 9 3/130/ 9 Buoy 41010 1950 78 79 130/ 12/ 16 1017.3F 4/ 8 3/110/ 8 St Augustine FL 2000 78 80 140/ 12/ 13 1016.2F $$

USA.gov is the U.S. government's official web portal to all federal, state and local government web resources and services.